Friday Harbor, WA

4:19 PM PST on February 06, 2016 (GMT -0800)
Friday Harbor

Weather History for KFHR - October, 2013

Change the Weather History Date:

Tuesday, October 1, 2013

  Actual Average Record
Temperature  
Mean Temperature 50 °F -  
Max Temperature 57 °F 60 °F 73 °F (2003)
Min Temperature 46 °F 44 °F 36 °F (1999)
Degree Days  
Heating Degree Days 14    
Moisture  
Dew Point 47 °F    
Average Humidity 89    
Maximum Humidity 100    
Minimum Humidity 69    
Precipitation  
Precipitation 0.06 in - - ()
Sea Level Pressure  
Sea Level Pressure 30.00 in    
Wind  
Wind Speed 4 mph (SE)    
Max Wind Speed 9 mph    
Max Gust Speed -    
Visibility 9 miles    
Events Rain    
Averages and records for this station are not official NWS values.
T = Trace of Precipitation, MM = Missing Value Source: NWS Daily Summary

Daily Weather History Graph

Daily Weather History Graph

Search for Another Location

Airport or City:

Trip Planner

Search our weather history database for the weather conditions in past years. The results will help you decide how hot, cold, wet, or windy it might be!

Date:

Astronomy

Oct. 01, 2013 Rise Set
Actual Time 7:12 AM PDT 6:50 PM PDT
Civil Twilight 6:40 AM PDT 7:21 PM PDT
Nautical Twilight 6:04 AM PDT 7:57 PM PDT
Astronomical Twilight 5:27 AM PDT 8:34 PM PDT
Moon 3:38 AM PDT (10/1) 5:07 PM PDT (10/1)
Length of Visible Light 12h 40m
Length of Day
11h 38m
Waning Crescent, 11% of the Moon is Illuminated
Oct 1
Waning Crescent
Oct 4
New
Oct 11
First Quarter
Oct 18
Full
Oct 26
Last Quarter

Hourly Weather History & Observations

Time (PDT) Temp. Windchill Dew Point Humidity Pressure Visibility Wind Dir Wind Speed Gust Speed Precip Events Conditions
12:53 AM 46.9 °F - 45.0 °F 93% 29.90 in 10.0 mi SE 3.5 mph - N/A   Mostly Cloudy
1:53 AM 48.9 °F - 46.9 °F 93% 29.91 in 10.0 mi Calm Calm - 0.00 in Rain Light Rain
2:53 AM 48.0 °F - 45.0 °F 89% 29.91 in 10.0 mi East 3.5 mph - 0.00 in   Mostly Cloudy
3:53 AM 46.9 °F - 46.0 °F 97% 29.91 in 9.0 mi Calm Calm - 0.00 in Rain Light Rain
4:53 AM 46.9 °F - 45.0 °F 93% 29.91 in 10.0 mi Calm Calm - 0.01 in   Overcast
5:53 AM 48.0 °F - 45.0 °F 89% 29.91 in 10.0 mi East 5.8 mph - N/A   Mostly Cloudy
6:30 AM 48.2 °F - 46.4 °F 93% 29.91 in 10.0 mi SE 9.2 mph - N/A   Overcast
6:53 AM 48.0 °F - 45.0 °F 89% 29.92 in 10.0 mi SE 6.9 mph - 0.00 in   Overcast
7:42 AM 46.4 °F 45.2 °F 44.6 °F 93% 29.93 in 9.0 mi South 3.5 mph - N/A   Mostly Cloudy
7:53 AM 46.9 °F - 45.0 °F 93% 29.93 in 10.0 mi South 3.5 mph - N/A   Overcast
8:00 AM 48.2 °F - 46.4 °F 93% 29.93 in 10.0 mi SSE 5.8 mph - N/A   Overcast
8:49 AM 48.2 °F - 46.4 °F 93% 29.94 in 10.0 mi Variable 5.8 mph - N/A   Mostly Cloudy
8:53 AM 48.9 °F - 46.0 °F 90% 29.95 in 10.0 mi South 4.6 mph - N/A   Mostly Cloudy
9:09 AM 50.0 °F - 46.4 °F 87% 29.95 in 10.0 mi South 4.6 mph - N/A   Mostly Cloudy
9:48 AM 50.0 °F - 46.4 °F 87% 29.96 in 9.0 mi Calm Calm - N/A   Mostly Cloudy
9:53 AM 51.1 °F - 46.9 °F 86% 29.96 in 9.0 mi SE 3.5 mph - N/A   Scattered Clouds
10:53 AM 54.0 °F - 48.9 °F 83% 29.97 in 10.0 mi ESE 9.2 mph - N/A   Scattered Clouds
11:00 AM 53.6 °F - 48.2 °F 82% 29.97 in 10.0 mi ESE 9.2 mph - N/A   Mostly Cloudy
11:10 AM 53.6 °F - 48.2 °F 82% 29.98 in 10.0 mi ESE 9.2 mph - N/A   Scattered Clouds
11:53 AM 53.1 °F - 46.9 °F 80% 29.99 in 10.0 mi SE 9.2 mph - N/A   Overcast
12:53 PM 55.9 °F - 46.9 °F 72% 30.00 in 10.0 mi SE 9.2 mph - N/A   Partly Cloudy
1:53 PM 55.9 °F - 46.0 °F 69% 30.01 in 10.0 mi SE 8.1 mph - N/A   Clear
2:53 PM 54.0 °F - 45.0 °F 72% 30.02 in 10.0 mi SSE 5.8 mph - N/A   Partly Cloudy
3:53 PM 53.1 °F - 48.0 °F 83% 30.02 in 8.0 mi South 3.5 mph - 0.00 in Rain Light Rain
4:53 PM 52.0 °F - 48.0 °F 86% 30.04 in 8.0 mi Calm Calm - 0.00 in Rain Light Rain
5:53 PM 51.1 °F - 48.0 °F 89% 30.02 in 10.0 mi ENE 4.6 mph - 0.00 in   Overcast
6:53 PM 51.1 °F - 48.0 °F 89% 30.04 in 10.0 mi North 4.6 mph - 0.00 in Rain Light Rain
7:53 PM 51.1 °F - 46.9 °F 86% 30.05 in 10.0 mi East 8.1 mph - 0.00 in   Overcast
8:53 PM 48.9 °F - 46.9 °F 93% 30.06 in 10.0 mi Calm Calm - N/A   Overcast
9:53 PM 51.1 °F - 48.0 °F 89% 30.08 in 7.0 mi ESE 5.8 mph - 0.00 in Rain Light Rain
10:35 PM 50.0 °F - 48.2 °F 94% 30.09 in 10.0 mi SSE 4.6 mph - 0.00 in   Overcast
10:44 PM 50.0 °F - 46.4 °F 87% 30.09 in 5.0 mi South 4.6 mph - 0.01 in Rain Light Rain
10:53 PM 50.0 °F - 48.0 °F 93% 30.10 in 5.0 mi South 3.5 mph - 0.02 in Rain Light Rain
11:05 PM 50.0 °F - 48.2 °F 94% 30.10 in 5.0 mi South 3.5 mph - 0.02 in Rain Rain
11:15 PM 50.0 °F - 48.2 °F 94% 30.10 in 6.0 mi Calm Calm - 0.02 in Rain Light Rain
11:34 PM 48.2 °F - 48.2 °F 100% 30.10 in 2.0 mi South 3.5 mph - 0.03 in Rain Light Rain
11:43 PM 48.2 °F - 48.2 °F 100% 30.10 in 6.0 mi SSE 4.6 mph - 0.03 in Rain Light Rain
11:53 PM 48.9 °F - 48.0 °F 97% 30.10 in 8.0 mi Calm Calm - 0.03 in   Overcast